COSMOS 1275 DEB, 27735

Orbit data source: Space-Track

COSMOS 1275 DEB, 27735 is space debris in LEO originally from a launch on Thu, 04 Jun 1981 UTC launched from the Plesetsk Missile And Space Complex (PKMTR). Debris objects in space refer to the collection of defunct objects orbiting the Earth. Examples of debris include non-operational satellites, rocket bodies, and fragments generated from explosions, collisions, or faulty payload assembly.

Loading next visibility...
Identifier
27735, 1981-053MQ
Orbit
LEO
Country
Flag of CISCIS
Related business
Manufacturer
Unknown
Mission
Spacecraft
Bus & Motor
Unknown
Mass
Unknown
Launch date (UTC)
1981-06-04 (45 years ago)
Launch vehicle
Unknown
Launch site
Plesetsk Missile And Space Complex (PKMTR)
Object type
Payload
Rocket body
Debris
Shape & HBR
Unknown shape, 0.1 m
Radar Cross Section
Small (<0.1 m²)

Expand to show TLE details & history
Last TLE update: 15 hours ago

TLE from 15 hours ago
0 COSMOS 1275 DEB
1 27735U 81053MQ  26072.57713849  .00001771  00000-0  15045-2 0  9995
2 27735  83.0450 286.0235 0093615 137.6293 252.0594 13.84858890611602
Epoch: 2026-03-13T13:51Z
TLE epoch observation values (Epoch: 2026-03-13T13:51:04.765Z)
Latitude
28.48484°
Longitude
-89.18149°
Altitude
971.932 km
Speed
7.357 km/s
True Right ascension
19h 19m 11s
True Declination
28° 20' 42"
Sunlit
Object was in daylight at epoch
Visualization orbit readout
Latitude
Unknown
Longitude
Unknown
Altitude
Unknown
Speed
Unknown
Apparent Right ascension
Unknown
Apparent Declination
Unknown
Sunlit
N/A
Visualization observer readout
Local Sidereal Time
09:40:32
Azimuth
Unknown
Elevation
Unknown
Doppler factor
Unknown
Orbital elements
Apogee altitude
1,012.379 km
Perigee altitude
875.29 km
Semi-major axis
7,321.971 km
Eccentricity
0.00936
Inclination
83.045°
RAAN
286.0235°
Arg. of periapsis
137.6293°
True anomaly
251.04253°
Mean anomaly
252.0594°
Eccentric anomaly
251.55059°
Mean motion
3.46419 °/min
Orbital period
103.92 mins
BSTAR
0.0015045
Loading maneuver chart data...
Computing Atmospheric mass density...
Loading historical data...
Loading historical data...
Loading historical data...
Loading historical data...
Loading historical data...
Loading historical data...
Loading historical data...

Documentation

Showing up to 5 results
|